User: anonymous   Login
Location: Unspecified
(0.0000°N, 0.0000°E)
Time: 07:05:25
(UTC+02:00)
Language:

Gbstr 26 Del rocket - Orbit

View from above orbital plane
View from above orbital plane
View from above satellite
View from above satellite

Ground track
Ground track

The orbit data is extracted from the following two-line orbital elements,

1 25876U 99041E   15211.10065992  .00000007  00000-0  41791-4 0  9996
2 25876 051.7647 150.4250 0534998 183.4164 176.3046 14.03363888817964
Epoch (UTC): 30 July 2015 02:24:57
Eccentricity: 0.0534998
inclination: 51.7647°
perigee height: 494 km
apogee height: 1270 km
right ascension of ascending node: 150.4250°
argument of perigee: 183.4164°
revolutions per day: 14.03363888
mean anomaly at epoch: 176.3046°
orbit number at epoch: 81796

The dashed part of the orbit path shows where the satellite is in the earth's shadow,  

DLR